Location: Bidart
(43.4376°N, 1.5913°W)
Time: 01:27:45
(UTC+00:00)

Cosmos 1821 Rocket - Pass Details

Date: 19 May 2025
Orbit: 943 x 1004 km, 82.9° (Epoch: 18 June)

Event Time Altitude Azimuth Distance (km) Brightness Sun altitude
Rises 22:14:22 0° 351° (N) 3,635 8.3 -21.9°
Reaches altitude 10° 22:16:53 10° 350° (N) 2,680 7.3 -22.1°
Maximum altitude 22:22:59 81° 265° (W) 960 3.9 -22.6°
Enters shadow 22:25:08 43° 184° (S) 1,299 4.2 -22.7°
